Regional Weather Roundup
Issued by NWS Northern Indiana

Home | Current Version | Previous Version | Graphics & Text | Print | Product List | Glossary On
Versions: 1 2 3 4 5 6 7 8 9 10 11 12 13 14 15 16 17 18 19 20 21 22 23 24 25 26 27 28 29 30 31 32 33 34 35 36 37 38 39 40 41 42 43 44 45 46 47 48 49 50
000
ASUS43 KIWX 260710
RWRIWX

KIWX WEATHER ROUNDUP
NATIONAL WEATHER SERVICE NORTHERN INDIANA
300 AM EDT SAT JUL 26 2014

NOTE: "FAIR" INDICATES FEW OR NO CLOUDS BELOW 12,000 FEET WITH NO
SIGNIFICANT WEATHER AND/OR OBSTRUCTIONS TO VISIBILITY.

* THESE STATIONS ARE NOT UNDER NWS QUALITY CONTROL. THEY ALSO MAY NOT
  REPORT WEATHER SUCH AS PRECIPITATION OR FOG.

INZ001>027-260800-
NORTHERN INDIANA

CITY           SKY/WX    TMP DP  RH WIND       PRES   REMARKS
GARY*          CLOUDY    70  60  69 S3        29.91F
VALPARAISO     CLOUDY    65  59  81 S3        29.92F
MICHIGAN CITY* PTCLDY    59  57  94 CALM      29.92F
LAPORTE*       CLOUDY    62  61  96 CALM      29.93F
KNOX*          CLOUDY    62  59  87 CALM      29.92F
SOUTH BEND     CLEAR     64  57  78 SE5       29.93F
GOSHEN         CLEAR     62  57  83 S3        29.94F
MONTICELLO*    CLOUDY    68  59  74 S5        29.92F
LOGANSPORT*    CLOUDY    64  59  82 S6        29.93F
ROCHESTER*     PTCLDY    63  59  88 E5        29.93F
WARSAW*        CLEAR     59  55  88 CALM      29.94F
ANGOLA*        CLEAR     57  57 100 CALM      29.95F
FORT WAYNE     MOCLDY    62  57  83 S3        29.96F
HUNTINGTON*    PTCLDY    61  58  88 CALM      29.95F
PERU/GRISSOM   CLOUDY    67  64  89 S6        29.93F
MARION*        CLOUDY    64  59  83 CALM      29.96F

$$
INZ028>050-260800-
CENTRAL INDIANA

CITY           SKY/WX    TMP DP  RH WIND       PRES   REMARKS
LAFAYETTE      CLOUDY    68  59  73 S5        29.93F
KOKOMO*        CLOUDY    66  59  77 S7        29.94F
MUNCIE*        CLOUDY    68  59  73 S7        29.97F
INDIANAPOLIS   CLOUDY    69  60  73 S8        29.95F

$$
MIZ043>046-050>051-056>058-064>065-071>073-077>080-260800-
SOUTHWEST LOWER MICHIGAN

CITY           SKY/WX    TMP DP  RH WIND       PRES   REMARKS
BATTLE CREEK   CLEAR     62  57  83 S7        29.94F
BENTON HARBOR  CLEAR     61  57  87 SE3       29.92F
COLDWATER*     CLEAR     60  58  92 CALM      29.95F
HILLSDALE*     CLEAR     60  59  99 CALM      29.96F
HOLLAND        CLEAR     64  59  83 S6        29.92F
GRAND RAPIDS   CLEAR     63  59  87 S5        29.92F
KALAMAZOO      CLEAR     63  58  83 S5        29.94F
STURGIS*       CLEAR     61  57  88 CALM      29.94F
THREE RIVERS*  FAIR      60  59  95 S3        29.94F

$$
OHZ001>008-015>018-024>025-260800-
NORTHWEST OHIO

CITY           SKY/WX    TMP DP  RH WIND       PRES   REMARKS
WAUSEON*       FAIR      63  57  82 S7        29.96F
DEFIANCE       CLEAR     59  55  87 CALM      29.97F
FINDLAY        CLOUDY    65  58  78 S6        29.97F
TOLEDO EXPRESS CLEAR     60  57  89 S5        29.96F
TOLEDO METCALF CLEAR     62  56  80 S6        29.97F
LIMA           CLOUDY    67  58  72 SE6       29.98F

$$
&&



USA.gov is the U.S. government's official web portal to all federal, state and local government web resources and services.